Regional Weather Roundup
Issued by NWS Jackson, KY

Home | Current Version | Previous Version | Graphics & Text | Print | Product List | Glossary On
Versions: 1 2 3 4 5 6 7 8 9 10 11 12 13 14 15 16 17 18 19 20 21 22 23 24 25 26 27 28 29 30 31 32 33 34 35 36 37 38 39 40 41 42 43 44 45 46 47 48 49 50
000
ASUS43 KJKL 291119
RWRJKL

EAST KENTUCKY HOURLY WEATHER ROUNDUP
NATIONAL WEATHER SERVICE JACKSON KY
700 AM EDT TUE JUL 29 2014

NOTE: "FAIR" INDICATES FEW OR NO CLOUDS BELOW 12,000 FEET WITH
NO SIGNIFICANT WEATHER AND/OR OBSTRUCTIONS TO VISIBILITY.

* THESE REPORTS ARE NOT UNDER NWS QUALITY CONTROL AND MAY NOT
  REPORT WEATHER SUCH AS PRECIPITATION AND FOG.

KYZ079-080-083-085-087-088-110-112-115-119-120-291200
...EASTERN KENTUCKY...

CITY           SKY/WX    TMP DP  RH WIND       PRES   REMARKS
JACKSON        MOCLDY    56  53  90 NW5       30.02R
LONDON         MOCLDY    59  54  83 NW5       30.03R
SOMERSET*      PTCLDY    57  52  82 N6        30.05R
MONTICELLO*    CLEAR     58  56  93 CALM      30.05R
WILLIAMSBURG*    N/A     57  57 100 CALM      30.03S
MIDDLESBORO*   FOG       57  57 100 CALM      30.03R VSB<1/4
HARLAN APT*    CLOUDY    55  55 100 MISG      30.03R VSB<1/4
BLACK MTN*       N/A     50  50 100 SW1         N/A
PIKEVILLE APT* CLOUDY    59  57  94 CALM      30.01R
BIG SANDY*     CLOUDY    59  57  95 CALM      30.01R
MOREHEAD APT*  PTSUNNY   54  52  94 W3        30.04R FOG
ASHLAND*       CLEAR     57  52  82 N3        29.98R
$$

KYZ035-036-041-042-044-050-067-078-099-291200
...CENTRAL KENTUCKY...

CITY           SKY/WX    TMP DP  RH WIND       PRES   REMARKS
MT STERLING*   CLEAR     52  50  93 CALM      30.04S
FLEMING/MASON* CLEAR     50  50  99 W6        30.03R FOG
DANVILLE*      CLEAR     52  48  87 NW5       30.06R
RICHMOND*      CLEAR     52  50  93 W3        30.03S
LEXINGTON      CLEAR     52  49  89 W3        30.05R
FRANKFORT      CLEAR     50  48  93 W3        30.04R
$$

KYZ091>093-OHZ055-061-077-WVZ005-015-034-035-042-291200
...SOUTHERN OHIO/WEST VIRGINIA...

CITY           SKY/WX    TMP DP  RH WIND       PRES   REMARKS
COVINGTON      PTCLDY    50  47  89 W5        30.03R
COLUMBUS       CLOUDY    59  53  80 N6        30.00R
DAYTON         CLOUDY    54  52  93 NW8       30.04R
WILMINGTON     PTCLDY    52  50  93 N8        30.00S
HUNTINGTON     MOCLDY    57  56  96 W3        29.99R
CHARLESTON     CLOUDY    61  60  97 W6        29.97R
PINEVILLE*     CLOUDY    61  61 100 MISG      30.04R FOG
BECKLEY        PTCLDY    57  55  93 W3        30.00R FOG
BLUEFIELD      PTCLDY    58  54  86 W5        30.03R
$$

VAZ002-007-008-TNZ017-027-036-066-071-291200
...SOUTHWEST VIRGINIA/EAST TENNESSEE...

CITY           SKY/WX    TMP DP  RH WIND       PRES   REMARKS
WISE*          CLOUDY    57  55  94 CALM      30.05R
JONESVILLE*      N/A     54  54 100 CALM      30.04R FOG
ABINGDON*      MOCLDY    60  58  91 SW3       30.02R
BRISTOL        PTCLDY    56  53  90 CALM      30.02R FOG
KNOXVILLE      PTCLDY    63  59  87 N3        30.00R
OAK RIDGE      CLEAR     61  59  93 CALM      30.02R
CROSSVILLE     MOCLDY    59  56  89 NW3       30.05R
NASHVILLE      PTCLDY    61  52  72 N5        30.06R
$$

...KEY TO REMARKS...
VSB - VISIBILITY IN MILES
WCI - WIND CHILL INDEX
HX  - HEAT INDEX

$$



USA.gov is the U.S. government's official web portal to all federal, state and local government web resources and services.